Regional Weather Roundup
Issued by NWS Newport/Morehead, NC

Current Version | Previous Version | Graphics & Text | Print | Product List | Glossary Off
Versions: 1 2 3 4 5 6 7 8 9 10 11 12 13 14 15 16 17 18 19 20 21 22 23 24 25 26 27 28 29 30 31 32 33 34 35 36 37 38 39 40 41 42 43 44 45 46 47 48 49 50

000
ASUS42 KMHX 202322
RWRMHX
WEATHER ROUNDUP FOR EASTERN NORTH CAROLINA
NATIONAL WEATHER SERVICE NEWPORT/MOREHEAD CITY NC
700 PM EDT MON OCT 20 2014

NOTE: "FAIR" INDICATES FEW OR NO CLOUDS BELOW 12,000 FEET
WITH NO SIGNIFICANT WEATHER AND/OR OBSTRUCTIONS TO VISIBILITY

NCZ015>017-031-032-045>047-102-103-210000-
NORTH COAST

CITY           SKY/WX    TMP DP  RH WIND       PRES   REMARKS
EDENTON        CLEAR     64  55  70 S8        30.02R
ELIZABETH CITY CLEAR     64  52  64 S6        30.01R
KITTY HAWK     CLEAR     61  55  78 S3        30.01S
MANTEO         CLEAR     62  54  75 SE5       30.03S

$$

NCZ045>047-081-094-103-104-210000-
CENTRAL COAST

CITY           SKY/WX    TMP DP  RH WIND       PRES   REMARKS
FRISCO         PTCLDY    68  57  68 S8        30.03S
SWANQUARTER      N/A     66 N/A N/A S8        30.00R

$$

NCZ095-097-098-100-101-210000-
SOUTHERN COAST

CITY           SKY/WX    TMP DP  RH WIND       PRES   REMARKS
BEAUFORT       MOCLDY    67  57  70 S5        30.02S
CEDAR ISLAND     N/A     64 N/A N/A S2        30.06S
JACKSONVILLE   PTCLDY    64  57  78 S5        30.01R
PINEY ISLAND   CLOUDY    69  56  62 CALM      30.02S
WILMINGTON     MOCLDY    66  58  75 CALM      30.01S


$$

NCZ011>013-027>030-043-044-078>080-089-090>093-098-210000-
COASTAL PLAIN

CITY           SKY/WX    TMP DP  RH WIND       PRES   REMARKS
AHOSKIE        CLEAR     55  51  87 CALM      30.01R
CLINTON        PTCLDY    64  57  79 CALM      30.00S
ELIZABETHTOWN  CLEAR     66  56  71 S3        30.01R
GOLDSBORO      CLEAR     65  57  74 S2        29.98R
GREENVILLE     PTCLDY    61  54  77 CALM      30.02R
HAVELOCK       MOCLDY    62  55  77 S3        30.03S
KENANSVILLE    CLEAR     60  55  83 CALM      30.01R
KINSTON        PTCLDY    66  54  63 S5        30.01R
NEW BERN       CLEAR     64  55  72 S6        30.03R
RICHLANDS      PTCLDY    64  54  68 CALM      30.02R
ROCKY MOUNT    PTCLDY    58  52  80 CALM      30.00R
WASHINGTON     PTCLDY    64  55  71 S3        30.02R
WHITEVILLE     PTCLDY    66  58  75 CALM      30.01R

$$

AMZ130-135-150-152-154-156-158-170-250-252-270-ANZ085-086-088-633-658-670-210000-
MARINE OBSERVATIONS

STATION/POSITION TIME  TEMP    WIND        PRES    WAVE   SWELL
                       AIR SEA DIR/SP/G            HT/PER HT/PER
                 (UTC) (F)     (DEG/KT/KT) (MB)    (FT/S) (FT/S)
CHESAPEAKE LIGHT 2300   67     210/ 13/ 14 1016.6
64 E VA BEACH    2300   68 69  190/ 17/ 19 1015.9    3/11   2/11
DUCK             2300   64 69  160/ 10/ 12 1015.7
2 E DUCK         2300                        N/A     3/13   2/13
10 NE DUCK       2300      71                N/A     3/13   2/13
OREGON INLET     2300   65 68  150/  5/  8 1016.6
13E OREGON INLT  2300      73                N/A     3/13   2/13
HATTERAS CG      2300   70 69  160/  8/ 10 1017.1
DIAMOND BUOY     2300   71     190/ 16/ 19 1016.8    3/ 8   3/ 8
17 S OCRACOKE    2200          VRB  4/  6  1016.7
CAPE LOOKOUT     2300   71     170/ 12/ 14 1016.3
BEAUFORT LAB     2300   70 70  170/  6/  8 1015.9
30 SE NEW RIVER  2300   72 76  150/ 12/ 14 1015.9    2/10   2/10
5 SE WRIGHTSVLE  2300   69 74  180/  8/ 10   N/A
225 S CAPE HAT   2233   73 80  120/ 10/ 12 1017.8    4/ 8   3/ 8
41 SE CHARLESTON 2300   75 79  210/  6/  8 1015.3    2/ 9   2/ 9

$$


USA.gov is the U.S. government's official web portal to all federal, state and local government web resources and services.